DW3735 Weather Reports


Display with metric or nautical units.
time (UTC)temp
F
wind
direction
speed
MPH
gust
MPH
rain 1hr
in
rain 24hr
in
rain mn
in
humidity
%
barometer
mb
20260506051017 45 0.0 0.0 0.00 0.24 0.00 50 1006.8
20260506045017 46 0.0 0.0 0.00 0.24 0.00 53 1006.8
20260506044017 46 0.0 0.0 0.00 0.24 0.00 50 1006.7
20260506043016 46 0.0 0.0 0.00 0.24 0.00 47 1006.6
20260506042017 47 0.0 0.0 0.00 0.24 0.00 47 1006.6
20260506041017 47 0.0 0.0 0.00 0.24 0.00 46 1006.6
20260506040017 48 0.0 0.0 0.00 0.24 0.24 48 1006.4
20260506035017 48 0.0 1.0 0.00 0.24 0.24 45 1006.4
20260506034037 48 0.0 2.0 0.00 0.24 0.24 44 1006.2
20260506033017 48 293 1.0 2.0 0.00 0.24 0.24 44 1006.2
20260506032037 49 0.0 2.0 0.00 0.24 0.24 46 1006.2
20260506031017 49 0.0 0.0 0.00 0.24 0.24 44 1006.2
20260506030017 49 0.0 2.0 0.00 0.24 0.24 42 1006.0
20260506025017 50 0.0 0.0 0.00 0.24 0.24 42 1005.9
20260506024017 50 0.0 2.0 0.00 0.24 0.24 42 1005.9
20260506023037 50 0.0 2.0 0.00 0.24 0.24 42 1005.7
20260506022017 51 293 1.0 3.0 0.00 0.24 0.24 41 1005.6
20260506021017 51 270 1.0 3.0 0.00 0.24 0.24 42 1005.5
20260506020017 51 270 1.0 3.0 0.00 0.24 0.24 42 1005.3
20260506015017 51 0.0 2.0 0.00 0.24 0.24 45 1005.1
20260506014017 51 0.0 1.0 0.00 0.24 0.24 45 1005.0
20260506013017 51 270 1.0 3.0 0.00 0.24 0.24 44 1004.7
20260506012037 51 270 1.0 3.0 0.00 0.24 0.24 47 1004.6
20260506011017 52 0.0 3.0 0.00 0.24 0.24 48 1004.3
20260506010017 52 248 1.0 4.0 0.00 0.24 0.24 47 1004.1
20260506005017 52 248 1.0 3.0 0.00 0.24 0.24 46 1003.9
20260506004017 53 225 1.0 3.0 0.00 0.24 0.24 46 1003.6
20260506003017 53 225 1.0 3.0 0.00 0.24 0.24 47 1003.4
20260506002017 53 225 1.0 3.0 0.00 0.24 0.24 48 1003.2
20260506001017 53 248 2.0 4.0 0.00 0.24 0.24 48 1003.0
20260506000017 54 225 2.0 3.0 0.00 0.24 0.24 48 1003.0
20260505235037 54 248 1.0 3.0 0.00 0.24 0.24 46 1002.8
20260505234037 54 225 2.0 7.0 0.00 0.24 0.24 45 1002.5
20260505233018 55 225 2.0 5.0 0.00 0.24 0.24 46 1002.4
20260505232017 55 225 1.0 4.0 0.00 0.24 0.24 47 1002.2
20260505231017 55 225 2.0 5.0 0.00 0.24 0.24 47 1002.0
20260505230017 55 270 2.0 7.0 0.00 0.24 0.24 46 1001.8
20260505225017 55 248 3.0 9.0 0.00 0.24 0.24 49 1001.7
20260505224037 56 270 2.0 9.0 0.00 0.24 0.24 51 1001.6
20260505223017 56 225 1.0 3.0 0.00 0.24 0.24 54 1001.7
20260505222017 56 270 2.0 6.0 0.00 0.24 0.24 54 1001.4
20260505221017 56 225 2.0 6.0 0.00 0.24 0.24 54 1001.2
20260505220017 56 225 2.0 3.0 0.00 0.24 0.24 56 1001.2
20260505215017 56 225 2.0 4.0 0.00 0.24 0.24 57 1001.1
20260505214037 56 225 1.0 5.0 0.00 0.24 0.24 60 1000.6
20260505213017 56 225 1.0 3.0 0.00 0.24 0.24 61 1000.7
20260505212037 56 225 2.0 4.0 0.00 0.24 0.24 61 1000.6
20260505211017 56 225 2.0 3.0 0.00 0.24 0.24 63 1000.4
20260505210017 56 248 1.0 3.0 0.00 0.24 0.24 63 1000.2
20260505205017 56 225 2.0 5.0 0.00 0.24 0.24 64 1000.1
20260505204017 56 225 3.0 5.0 0.00 0.24 0.24 66 999.8
20260505203017 55 225 3.0 5.0 0.00 0.24 0.24 69 999.8
20260505202017 55 225 2.0 4.0 0.00 0.24 0.24 71 999.8
20260505201017 55 225 2.0 3.0 0.00 0.24 0.24 73 999.6
20260505200017 55 225 1.0 3.0 0.00 0.24 0.24 74 999.5
20260505195017 55 225 1.0 3.0 0.00 0.24 0.24 76 999.6
20260505194017 55 0.0 0.0 0.00 0.24 0.24 78 999.4
20260505193017 54 0.0 0.0 0.00 0.24 0.24 79 999.3
20260505192017 54 0.0 0.0 0.00 0.24 0.24 79 999.3
20260505191017 54 0.0 0.0 0.00 0.24 0.24 79 999.4
20260505190037 54 0.0 0.0 0.00 0.24 0.24 80 999.8
20260505185017 54 0.0 0.0 0.00 0.24 0.24 82 999.7
20260505184017 54 0.0 0.0 0.00 0.24 0.24 82 999.8
20260505183017 54 0.0 0.0 0.00 0.24 0.24 82 999.5
20260505182037 54 0.0 0.0 0.00 0.24 0.24 82 999.4
20260505181017 54 0.0 0.0 0.00 0.24 0.24 83 999.4
20260505180017 54 0.0 0.0 0.00 0.24 0.24 84 999.5
20260505175017 55 0.0 0.0 0.00 0.24 0.24 84 999.4
20260505174017 55 0.0 2.0 0.00 0.24 0.24 88 999.2
20260505173017 55 0.0 0.0 0.00 0.24 0.24 90 999.2
20260505172017 55 0.0 0.0 0.00 0.24 0.24 90 998.9
20260505171037 55 0.0 1.0 0.00 0.24 0.24 90 998.6
20260505170017 55 0.0 0.0 0.02 0.24 0.24 87 998.5
20260505165057 56 0.0 0.0 0.16 0.24 0.24 87 998.4
20260505164017 56 0.0 0.0 0.20 0.24 0.24 87 998.1
20260505163017 56 0.0 0.0 0.20 0.24 0.24 86 997.9
20260505162017 56 0.0 2.0 0.21 0.24 0.24 86 997.8
20260505161017 57 0.0 1.0 0.23 0.24 0.24 86 997.8
20260505153037 58 225 1.0 3.0 0.03 0.04 0.04 77 996.4
20260505152017 59 203 3.0 6.0 0.02 0.02 0.02 74 996.4
20260505151017 60 225 2.0 4.0 0.00 0.01 0.01 69 996.6
20260505125017 59 180 2.0 4.0 0.00 0.00 0.00 63 997.2
20260505124017 59 203 2.0 4.0 0.00 0.00 0.00 63 997.1
20260505123058 59 203 2.0 4.0 0.00 0.00 0.00 63 997.1
20260505122017 59 158 1.0 4.0 0.00 0.00 0.00 63 997.0
20260505121017 59 203 2.0 8.0 0.00 0.00 0.00 63 997.0
20260505120017 59 180 2.0 4.0 0.00 0.02 0.00 62 997.0
20260505115017 59 203 3.0 5.0 0.00 0.04 0.00 62 997.0
20260505114017 58 180 3.0 6.0 0.00 0.06 0.00 62 996.9
20260505113017 58 180 3.0 6.0 0.00 0.06 0.00 62 996.9
20260505112017 58 180 3.0 5.0 0.00 0.08 0.00 62 996.8
20260505111017 58 203 3.0 5.0 0.00 0.09 0.00 61 997.0
20260505102038 58 180 2.0 4.0 0.00 0.13 0.00 59 996.3
20260505101017 59 180 1.0 3.0 0.00 0.13 0.00 58 996.3
20260505100017 59 203 2.0 5.0 0.00 0.13 0.00 58 996.5
20260505095017 59 225 2.0 6.0 0.00 0.13 0.00 57 996.6
20260505094017 59 225 2.0 4.0 0.00 0.14 0.00 57 996.3
20260505093017 59 203 3.0 5.0 0.00 0.15 0.00 57 996.4
20260505092017 59 180 3.0 6.0 0.00 0.16 0.00 57 996.0
20260505091017 59 180 3.0 5.0 0.00 0.17 0.00 56 996.1
20260505090017 59 180 3.0 4.0 0.00 0.19 0.00 56 996.1
20260505085037 59 180 3.0 6.0 0.00 0.20 0.00 55 996.3
20260505084037 60 203 3.0 7.0 0.00 0.22 0.00 53 996.7
20260505083017 60 203 3.0 4.0 0.00 0.23 0.00 53 996.5
20260505082017 60 203 3.0 5.0 0.00 0.24 0.00 52 996.5
20260505081018 60 225 3.0 5.0 0.00 0.24 0.00 51 996.6
20260505080017 61 203 3.0 6.0 0.00 0.25 0.00 50 996.7
20260505075017 61 203 4.0 9.0 0.00 0.26 0.00 50 996.4
20260505074017 61 203 4.0 10.0 0.00 0.26 0.00 49 996.4
20260505073017 61 203 4.0 7.0 0.00 0.27 0.00 48 996.5
20260505072017 61 203 4.0 6.0 0.00 0.27 0.00 48 996.6
20260505071017 61 203 3.0 7.0 0.00 0.27 0.00 47 996.6
20260505070017 61 203 4.0 6.0 0.00 0.27 0.00 47 996.6
20260505065037 61 203 4.0 5.0 0.00 0.27 0.00 47 996.6
20260505064017 61 203 3.0 5.0 0.00 0.27 0.00 48 996.7
20260505063017 60 180 3.0 6.0 0.00 0.27 0.00 48 996.7
20260505062017 61 180 3.0 5.0 0.00 0.27 0.00 48 996.8
20260505061017 61 180 3.0 5.0 0.00 0.27 0.00 48 997.1
20260505060018 61 180 3.0 4.0 0.00 0.27 0.00 48 997.2